Algona, IA

9:13 PM CDT on April 26, 2018 (GMT -0500)
Algona Municipal

Weather History for KAXA - November, 2013

Change the Weather History Date:

Friday, November 1, 2013

  Actual Average Record
Temperature  
Mean Temperature 46 °F -  
Max Temperature 53 °F 49 °F 69 °F (2001)
Min Temperature 39 °F 32 °F 15 °F (1996)
Degree Days  
Heating Degree Days 19    
Moisture  
Dew Point 39 °F    
Average Humidity 81    
Maximum Humidity 100    
Minimum Humidity 54    
Precipitation  
Precipitation 0.00 in - - ()
Sea Level Pressure  
Sea Level Pressure 29.69 in    
Wind  
Wind Speed 11 mph (NW)    
Max Wind Speed 20 mph    
Max Gust Speed 28 mph    
Visibility 10 miles    
Events Rain    
Averages and records for this station are not official NWS values.
T = Trace of Precipitation, MM = Missing Value Source: NWS Daily Summary

Daily Weather History Graph

Daily Weather History Graph

Search for Another Location

Airport or City:

Astronomy

Nov. 01, 2013 Rise Set
Actual Time 7:52 AM CDT 6:08 PM CDT
Civil Twilight 7:22 AM CDT 6:38 PM CDT
Nautical Twilight 6:48 AM CDT 7:11 PM CDT
Astronomical Twilight 6:15 AM CDT 7:44 PM CDT
Moon 5:42 AM CDT (11/1) 5:04 PM CDT (11/1)
Length of Visible Light 11h 15m
Length of Day
10h 16m
Waning Crescent, 4% of the Moon is Illuminated
Nov 1
Waning Crescent
Nov 3
New
Nov 9
First Quarter
Nov 17
Full
Nov 25
Last Quarter

Hourly Weather History & Observations

Time (CDT) Temp. Windchill Dew Point Humidity Pressure Visibility Wind Dir Wind Speed Gust Speed Precip Events Conditions
12:15 AM 41.0 °F 35.2 °F 41.0 °F 100% 29.48 in 8.0 mi WNW 9.2 mph - N/A   Overcast
1:15 AM 41.0 °F 36.4 °F 41.0 °F 100% 29.49 in 9.0 mi WNW 6.9 mph - N/A   Overcast
4:15 AM 41.0 °F 36.4 °F 41.0 °F 100% 29.55 in - WNW 6.9 mph - N/A   Overcast
4:55 AM 41.0 °F 34.7 °F 41.0 °F 100% 29.55 in - WNW 10.4 mph - N/A   Overcast
5:15 AM 41.0 °F 34.7 °F 41.0 °F 100% 29.56 in 9.0 mi WNW 10.4 mph - N/A   Overcast
5:35 AM 41.0 °F 34.7 °F 41.0 °F 100% 29.57 in 9.0 mi WNW 10.4 mph - N/A   Overcast
5:55 AM 41.0 °F 35.8 °F 41.0 °F 100% 29.58 in 9.0 mi WNW 8.1 mph - N/A   Overcast
6:15 AM 41.0 °F 34.7 °F 41.0 °F 100% 29.59 in 8.0 mi WNW 10.4 mph - N/A   Overcast
6:35 AM 41.0 °F 34.7 °F 41.0 °F 100% 29.59 in 9.0 mi WNW 10.4 mph - N/A   Overcast
6:55 AM 41.0 °F 35.8 °F 39.2 °F 93% 29.59 in 8.0 mi WNW 8.1 mph - N/A   Light Drizzle
7:15 AM 41.0 °F 36.4 °F 39.2 °F 93% 29.59 in 7.0 mi NW 6.9 mph - N/A   Light Drizzle
7:35 AM 41.0 °F 35.2 °F 39.2 °F 93% 29.60 in 6.0 mi WNW 9.2 mph - N/A Rain Light Rain
7:55 AM 39.2 °F 32.5 °F 39.2 °F 100% 29.60 in 8.0 mi WNW 10.4 mph 16.1 mph N/A   Overcast
8:15 AM 39.2 °F 33.6 °F 39.2 °F 100% 29.61 in 8.0 mi WNW 8.1 mph - N/A   Overcast
8:35 AM 39.2 °F 32.5 °F 39.2 °F 100% 29.62 in 8.0 mi WNW 10.4 mph - N/A   Overcast
8:55 AM 39.2 °F 33.0 °F 39.2 °F 100% 29.63 in 9.0 mi WNW 9.2 mph - N/A   Overcast
9:15 AM 41.0 °F 34.3 °F 39.2 °F 93% 29.64 in 9.0 mi WNW 11.5 mph - N/A   Overcast
9:35 AM 41.0 °F 34.7 °F 39.2 °F 93% 29.64 in 10.0 mi WNW 10.4 mph - N/A   Overcast
9:55 AM 41.0 °F 34.3 °F 39.2 °F 93% 29.65 in 9.0 mi WNW 11.5 mph - N/A   Mostly Cloudy
10:15 AM 42.8 °F 36.2 °F 39.2 °F 87% 29.65 in 10.0 mi WNW 12.7 mph - N/A   Mostly Cloudy
10:35 AM 42.8 °F 36.6 °F 39.2 °F 87% 29.66 in 10.0 mi WNW 11.5 mph 18.4 mph N/A   Mostly Cloudy
10:55 AM 44.6 °F 37.4 °F 39.2 °F 81% 29.66 in 9.0 mi WNW 16.1 mph - N/A   Scattered Clouds
11:15 AM 46.4 °F 40.4 °F 39.2 °F 76% 29.66 in 10.0 mi WNW 13.8 mph 19.6 mph N/A   Scattered Clouds
11:35 AM 46.4 °F 40.7 °F 39.2 °F 76% 29.67 in 9.0 mi WNW 12.7 mph 18.4 mph N/A   Scattered Clouds
11:55 AM 48.2 °F - 37.4 °F 66% 29.67 in 9.0 mi WNW 16.1 mph - N/A   Scattered Clouds
12:15 PM 50.0 °F - 37.4 °F 62% 29.68 in 10.0 mi NW 12.7 mph 20.7 mph N/A   Scattered Clouds
12:35 PM 50.0 °F - 37.4 °F 62% 29.68 in 10.0 mi NW 17.3 mph - N/A   Partly Cloudy
12:55 PM 51.8 °F - 39.2 °F 62% 29.68 in 10.0 mi WNW 16.1 mph - N/A   Clear
1:15 PM 51.8 °F - 39.2 °F 62% 29.68 in 10.0 mi NW 12.7 mph 19.6 mph N/A   Scattered Clouds
1:35 PM 51.8 °F - 37.4 °F 58% 29.67 in 10.0 mi NW 15.0 mph - N/A   Mostly Cloudy
1:55 PM 53.6 °F - 39.2 °F 58% 29.68 in 10.0 mi WNW 16.1 mph 27.6 mph N/A   Overcast
2:15 PM 53.6 °F - 37.4 °F 54% 29.68 in 10.0 mi NW 13.8 mph 24.2 mph N/A   Scattered Clouds
2:35 PM 53.6 °F - 39.2 °F 58% 29.68 in 10.0 mi WNW 19.6 mph - N/A   Mostly Cloudy
2:55 PM 53.6 °F - 39.2 °F 58% 29.69 in 10.0 mi WNW 18.4 mph 25.3 mph N/A   Mostly Cloudy
3:15 PM 53.6 °F - 39.2 °F 58% 29.69 in 10.0 mi NW 16.1 mph 26.5 mph N/A   Mostly Cloudy
4:55 PM 53.6 °F - 39.2 °F 58% 29.71 in 10.0 mi NW 12.7 mph 20.7 mph N/A   Overcast
5:15 PM 51.8 °F - 37.4 °F 58% 29.72 in 10.0 mi NW 15.0 mph 23.0 mph N/A   Mostly Cloudy
5:35 PM 50.0 °F - 37.4 °F 62% 29.73 in 10.0 mi NW 13.8 mph - N/A   Partly Cloudy
5:55 PM 50.0 °F - 37.4 °F 62% 29.74 in 10.0 mi NW 11.5 mph 20.7 mph N/A   Scattered Clouds
6:15 PM 50.0 °F - 37.4 °F 62% 29.74 in 10.0 mi NW 12.7 mph 18.4 mph N/A   Mostly Cloudy
6:35 PM 48.2 °F - 39.2 °F 71% 29.76 in 10.0 mi NNW 10.4 mph 16.1 mph N/A   Mostly Cloudy
6:55 PM 48.2 °F - 39.2 °F 71% 29.77 in 10.0 mi NW 9.2 mph - N/A   Mostly Cloudy
7:15 PM 46.4 °F 42.9 °F 39.2 °F 76% 29.78 in 10.0 mi NW 6.9 mph - N/A   Overcast
7:35 PM 46.4 °F 43.5 °F 39.2 °F 76% 29.78 in 10.0 mi NW 5.8 mph - N/A   Overcast
7:55 PM 46.4 °F 42.4 °F 39.2 °F 76% 29.79 in 10.0 mi NW 8.1 mph - N/A   Overcast
8:15 PM 46.4 °F 41.5 °F 39.2 °F 76% 29.80 in 10.0 mi NW 10.4 mph 16.1 mph N/A   Overcast
8:35 PM 46.4 °F 41.5 °F 39.2 °F 76% 29.80 in 10.0 mi NW 10.4 mph - N/A   Overcast
8:55 PM 46.4 °F 41.1 °F 39.2 °F 76% 29.81 in 10.0 mi NNW 11.5 mph 18.4 mph N/A   Overcast
9:15 PM 44.6 °F 38.8 °F 39.2 °F 81% 29.82 in 10.0 mi NNW 11.5 mph - N/A   Overcast
9:35 PM 44.6 °F 39.2 °F 39.2 °F 81% 29.82 in 10.0 mi NNW 10.4 mph 16.1 mph N/A   Overcast
9:55 PM 44.6 °F 38.4 °F 39.2 °F 81% 29.83 in 10.0 mi NNW 12.7 mph - N/A   Mostly Cloudy
10:15 PM 42.8 °F 37.0 °F 39.2 °F 87% 29.84 in 10.0 mi NNW 10.4 mph 16.1 mph N/A   Mostly Cloudy
10:35 PM 42.8 °F 37.0 °F 39.2 °F 87% 29.85 in 10.0 mi NW 10.4 mph 18.4 mph N/A   Mostly Cloudy
10:55 PM 42.8 °F 38.0 °F 41.0 °F 93% 29.86 in 10.0 mi NW 8.1 mph 16.1 mph N/A   Mostly Cloudy
11:15 PM 44.6 °F 38.4 °F 41.0 °F 87% 29.87 in 10.0 mi NW 12.7 mph - N/A   Overcast
11:35 PM 44.6 °F 38.4 °F 41.0 °F 87% 29.88 in 10.0 mi NNW 12.7 mph 19.6 mph N/A   Overcast
11:55 PM 44.6 °F 38.4 °F 41.0 °F 87% 29.88 in 10.0 mi NNW 12.7 mph 19.6 mph N/A   Overcast